Simultaneous Nadir Overpasses (SNOs) Predictions

Prediction of SNOs between METOP-A and NOAA-19 Satellite Orbit:

Table of predicted SNOs for the next 14.0 days since TLE Epoch: 1/23/2017
Index Date (METOP-A) Time (METOP-A) Lat,Lon (METOP-A) SZA (METOP-A ) Date (NOAA-19) Time (NOAA-19) Lat,Lon (NOAA-19) SZA (NOAA-19 ) Distance(km) Time Diff (sec)
1 01/30/2017 20:49:29 -77.26, 52.33 85.39 01/30/2017 20:48:23 -77.27, 48.81 85.37 86.36 66
2 01/30/2017 21:40:19 76.84,-142.08 94.18 01/30/2017 21:39:11 76.85,-142.04 94.19 1.86 68
3 01/30/2017 22:31:00 -76.85, 25.29 85.83 01/30/2017 22:30:14 -76.82, 25.31 85.85 2.96 46
4 01/30/2017 23:21:41 76.82,-167.50 94.14 01/30/2017 23:21:12 76.82,-167.41 94.14 2.18 29
5 01/31/2017 00:12:22 -76.83, -0.12 85.86 01/31/2017 00:12:16 -76.84, -0.24 85.86 2.91 6
6 01/31/2017 01:03:03 76.80, 167.09 94.10 01/31/2017 01:03:14 76.83, 167.04 94.13 3.57 11
7 01/31/2017 01:53:44 -76.81, -25.54 85.90 01/31/2017 01:54:17 -76.80, -25.61 85.91 2.04 33
8 01/31/2017 02:44:25 76.78, 141.67 94.06 01/31/2017 02:45:15 76.80, 141.67 94.08 1.89 50
9 01/31/2017 03:35:06 -76.79, -50.95 85.94 01/31/2017 03:36:18 -76.77, -50.98 85.96 2.56 72




NCC Satellite Simultaneous Nadir Overpasses (SNOs) Prediction Service
